"Pseudo-MPEC" for P12bzJS

Created 2025 Jul 7 20:35:07 UT using Find_Orb

Click here for an explanation of pseudo-MPECs

 
 Astrometry: 
     P12bzJS* C2025 07 04.51228721 03 23.185-35 20 44.83   ~74KZ 21.36wXNEOCPF51
     P12bzJS  C2025 07 04.52271921 03 22.023-35 21 07.92   ~74KZ 21.31wXNEOCPF51
     P12bzJS  C2025 07 04.53316421 03 20.844-35 21 30.16   ~74KZ 21.38wXNEOCPF51
     P12bzJS  C2025 07 04.54357621 03 19.658-35 21 53.06   ~74KZ 21.23wXNEOCPF51
     P12bzJS 2C2025 07 05.48131221 01 35.912-35 56 47.37   ~76Ao 21.2 GWNEOCPT12
     P12bzJS 2C2025 07 05.48263221 01 35.748-35 56 50.40   ~76Ao 21.3 GWNEOCPT12

Station data:
(F51) Pan-STARRS 1, Haleakala  (N20.707234 W156.255910)  US/Hawaii.
   Observers J. Bulger, T. Lowe, A. Schultz, M. Willman. Measurers K.
   Chambers, S. Chastel, T. de Boer, L. Denneau, J. Fairlamb, H. Flewelling,
   M. Huber, C.-C. Lin, E. Magnier, Y. Ramanjooloo, R. Wainscoat, R. Weryk.
   1.8-m Ritchey-Chrétien + CCD.
(T12) Mauna Kea-UH/Tholen NEO Follow-Up (2.24-m)  (N19.822991 W155.469434)
   US/Hawaii.  Observer Y. Ramanjooloo. 2.24-m f/10.1 University of Hawaii
   reflector.

Orbital elements:  P12bzJS
   Perihelion 2025 Sep 14.59345 +/- 9.05 TT = 14:14:33 (JD 2460933.09345)
Epoch 2025 Jul  5.0 TT = JDT 2460861.5   Earth MOID: 0.0732   Ve: 0.0405
M 334.92319727 +/- 21               Me: 0.0200   Ma: 0.0664      AutoNEOCP
n   0.35026673 +/- 0.257            Peri.   15.39826 +/- 31
a   1.99313531 +/- 0.977            Node    66.89180 +/- 34
e   0.9172399 +/- 0.0695            Incl.    9.48943 +/- 6
P   2.81388                H 20.51  G  0.15   U 11.8
q 0.16495191 +/- 0.058    Q 3.82131871 +/- 2.01           (J2000 ecliptic)
From 6 observations 2025 July 4-5 (23.3 hr); mean residual 0".11
Residuals in arcseconds: 
250704 F51  .08-  .11+    250704 F51  .07+  .22+    250705 T12  .00   .01-    
250704 F51  .08+  .27-    250704 F51  .07-  .06-    250705 T12  .00   .01+    

Ephemerides (geocentric):
Date (UTC) HH   RA             Dec           delta  r     elong  mag " sig PA
---- --------  ------------   ------------  ------ ------ -----  --- --------
2025 07 07 21  20 56 19.775   -37 34 09.41  .53753 1.5132 152.3 21.0 92.0  45
2025 07 07 22  20 56 13.566   -37 35 58.21  .53680 1.5126 152.3 21.0 95.1  44
2025 07 07 23  20 56 07.329   -37 37 47.27  .53608 1.5121 152.3 21.0 98.2  44
2025 07 08 00  20 56 01.066   -37 39 36.57  .53535 1.5115 152.4 21.0  101  44
2025 07 08 01  20 55 54.776   -37 41 26.12  .53463 1.5109 152.4 21.0  105  44
2025 07 08 02  20 55 48.460   -37 43 15.92  .53390 1.5103 152.4 21.0  108  44
2025 07 08 03  20 55 42.116   -37 45 05.97  .53318 1.5097 152.5 21.0  111  44
2025 07 08 04  20 55 35.746   -37 46 56.26  .53246 1.5091 152.5 21.0  115  44
2025 07 08 05  20 55 29.348   -37 48 46.81  .53174 1.5085 152.5 21.0  118  44
2025 07 08 06  20 55 22.922   -37 50 37.62  .53101 1.5079 152.6 21.0  122  44
2025 07 08 07  20 55 16.470   -37 52 28.67  .53029 1.5073 152.6 21.0  125  44
2025 07 08 08  20 55 09.989   -37 54 19.97  .52957 1.5067 152.6 21.0  129  44
2025 07 08 09  20 55 03.481   -37 56 11.53  .52885 1.5061 152.7 20.9  133  44
2025 07 08 10  20 54 56.945   -37 58 03.34  .52813 1.5055 152.7 20.9  136  44
2025 07 08 11  20 54 50.382   -37 59 55.41  .52741 1.5049 152.7 20.9  140  44
2025 07 08 12  20 54 43.790   -38 01 47.73  .52669 1.5043 152.8 20.9  144  44
2025 07 08 13  20 54 37.169   -38 03 40.31  .52597 1.5037 152.8 20.9  148  44
2025 07 08 14  20 54 30.521   -38 05 33.14  .52526 1.5032 152.8 20.9  152  44
2025 07 08 15  20 54 23.844   -38 07 26.23  .52454 1.5026 152.9 20.9  156  44
2025 07 08 16  20 54 17.138   -38 09 19.58  .52382 1.5020 152.9 20.9  160  44
2025 07 08 17  20 54 10.404   -38 11 13.18  .52310 1.5014 152.9 20.9  164  44
2025 07 08 18  20 54 03.641   -38 13 07.04  .52239 1.5008 153.0 20.9  169  44
2025 07 08 19  20 53 56.848   -38 15 01.16  .52167 1.5002 153.0 20.9  173  44
2025 07 08 20  20 53 50.027   -38 16 55.54  .52096 1.4996 153.0 20.9  177  44
2025 07 08 21  20 53 43.176   -38 18 50.18  .52024 1.4990 153.0 20.9  182  44
2025 07 08 22  20 53 36.296   -38 20 45.09  .51953 1.4984 153.1 20.9  186  44
2025 07 08 23  20 53 29.386   -38 22 40.25  .51881 1.4978 153.1 20.9  191  44
2025 07 09 00  20 53 22.447   -38 24 35.67  .51810 1.4972 153.1 20.9  196  44
2025 07 09 01  20 53 15.478   -38 26 31.36  .51739 1.4966 153.2 20.9  200  44
2025 07 09 02  20 53 08.479   -38 28 27.31  .51667 1.4960 153.2 20.9  205  44
2025 07 09 03  20 53 01.449   -38 30 23.52  .51596 1.4954 153.2 20.9  210  44
2025 07 09 04  20 52 54.390   -38 32 20.00  .51525 1.4948 153.3 20.9  215  44
2025 07 09 05  20 52 47.300   -38 34 16.74  .51454 1.4942 153.3 20.9  220  44
2025 07 09 06  20 52 40.180   -38 36 13.75  .51383 1.4936 153.3 20.9  225  44
2025 07 09 07  20 52 33.028   -38 38 11.02  .51312 1.4930 153.3 20.9  230  44
2025 07 09 08  20 52 25.847   -38 40 08.57  .51241 1.4924 153.4 20.9  236  44
2025 07 09 09  20 52 18.634   -38 42 06.37  .51170 1.4918 153.4 20.8  241  44
2025 07 09 10  20 52 11.390   -38 44 04.45  .51099 1.4912 153.4 20.8  246  44
2025 07 09 11  20 52 04.115   -38 46 02.79  .51028 1.4906 153.5 20.8  252  44
2025 07 09 12  20 51 56.808   -38 48 01.40  .50957 1.4900 153.5 20.8  257  44
2025 07 09 13  20 51 49.470   -38 50 00.28  .50887 1.4894 153.5 20.8  263  44
2025 07 09 14  20 51 42.100   -38 51 59.44  .50816 1.4888 153.5 20.8  268  44
2025 07 09 15  20 51 34.699   -38 53 58.86  .50745 1.4882 153.6 20.8  274  44
2025 07 09 16  20 51 27.265   -38 55 58.55  .50675 1.4876 153.6 20.8  280  44
2025 07 09 17  20 51 19.799   -38 57 58.52  .50604 1.4870 153.6 20.8  286  44
2025 07 09 18  20 51 12.301   -38 59 58.75  .50534 1.4864 153.6 20.8  292  44
2025 07 09 19  20 51 04.771   -39 01 59.26  .50463 1.4858 153.7 20.8  298  44
2025 07 09 20  20 50 57.207   -39 04 00.05  .50393 1.4852 153.7 20.8  304  44